Weather History for Seretse Khama, Botswana

Change the Weather History Date:

Monday, August 19, 2013

  Actual Average Record
Temperature  
Mean Temperature 55 °F -  
Max Temperature 75 °F 79 °F 89 °F (2001)
Min Temperature 35 °F 49 °F 35 °F (2013)
Degree Days  
Heating Degree Days 10    
Growing Degree Days 5 (Base 50)    
Moisture  
Dew Point 24 °F    
Average Humidity 27    
Maximum Humidity 55    
Minimum Humidity 15    
Precipitation  
Precipitation 0.00 in - - ()
Sea Level Pressure  
Sea Level Pressure 30.24 in    
Wind  
Wind Speed 6 mph ()    
Max Wind Speed 12 mph    
Max Gust Speed -    
Averages and records for this station are not official NWS values.
T = Trace of Precipitation, MM = Missing Value Source: Averaged Metar Reports

Daily Weather History Graph

Daily Weather History Graph

Search for Another Location

Airport:

Trip Planner

Search our weather history database for the weather conditions in past years. The results will help you decide how hot, cold, wet, or windy it might be!

Date:

Astronomy

Aug. 19, 2013 Rise Set
Actual Time 6:39 AM CAT 6:00 PM CAT
Civil Twilight 6:16 AM CAT 6:23 PM CAT
Nautical Twilight 5:49 AM CAT 6:50 PM CAT
Astronomical Twilight 5:23 AM CAT 7:16 PM CAT
Moon 4:28 PM CAT (8/19) 4:55 AM CAT (8/19)
Length of Visible Light 12h 06m
Length of Day
11h 20m
Waxing Gibbous, 96% of the Moon is Illuminated
Aug 19
Waxing Gibbous
Aug 21
Full
Aug 28
Last Quarter
Sep 5
New
Sep 12
First Quarter

Hourly Weather History & Observations

Time (CAT) Temp. Windchill Dew Point Humidity Pressure Visibility Wind Dir Wind Speed Gust Speed Precip Events Conditions
12:00 AM 53.6 °F - 10.4 °F 18% 30.24 in - South 8.1 mph - N/A   Clear
1:00 AM 50.0 °F - 12.2 °F 22% 30.24 in - Variable 2.3 mph - N/A   Clear
2:00 AM 44.6 °F 43.1 °F 12.2 °F 27% 30.24 in - NW 3.5 mph - N/A   Clear
4:00 AM 41.0 °F 39.0 °F 14.0 °F 33% 30.21 in - South 3.5 mph - N/A   Clear
5:00 AM 39.2 °F - 12.2 °F 33% 30.18 in - Variable 2.3 mph - N/A   Clear
6:00 AM 35.6 °F 30.7 °F 12.2 °F 38% 30.21 in - WNW 5.8 mph - N/A   Clear
7:00 AM 39.2 °F 34.2 °F 12.2 °F 33% 30.24 in - South 6.9 mph - N/A   Clear
9:00 AM 55.4 °F - 14.0 °F 20% 30.30 in - Variable 2.3 mph - N/A   Clear
10:00 AM 60.8 °F - 12.2 °F 15% 30.30 in - East 8.1 mph - N/A   Clear
11:00 AM 64.4 °F - 15.8 °F 15% 30.30 in - ENE 9.2 mph - N/A   Clear
12:00 PM 68.0 °F - 17.6 °F 15% 30.27 in - NE 9.2 mph - N/A   Clear
1:00 PM 71.6 °F - 24.8 °F 17% 30.24 in - ENE 11.5 mph - N/A   Clear
2:00 PM 73.4 °F - 26.6 °F 18% 30.21 in - NE 9.2 mph - N/A   Clear
3:00 PM 75.2 °F - 32.0 °F 21% 30.21 in - Variable 6.9 mph - N/A   Clear
4:00 PM 75.2 °F - 32.0 °F 21% 30.18 in - Variable 8.1 mph - N/A   Clear
5:00 PM 75.2 °F - 30.2 °F 19% 30.18 in - ENE 5.8 mph - N/A   Clear
6:00 PM 71.6 °F - 32.0 °F 23% 30.21 in - ENE 6.9 mph - N/A   Clear
7:00 PM 66.2 °F - 33.8 °F 30% 30.21 in - ENE 8.1 mph - N/A   Clear
8:00 PM 66.2 °F - 41.0 °F 40% 30.24 in - NE 11.5 mph - N/A   Clear
9:00 PM 64.4 °F - 41.0 °F 42% 30.27 in - NE 10.4 mph - N/A   Clear
10:00 PM 62.6 °F - 42.8 °F 48% 30.27 in - NE 8.1 mph - N/A   Clear
11:00 PM 60.8 °F - 44.6 °F 55% 30.27 in - NE 6.9 mph - N/A   Clear